Kosmos-1925

operational
NORAD ID: 18938 Int'l Des: 1988-016 Owner: UNKS Country: SU
LEOCIRCULAR

Kosmos-1925について

説明を読み込み中...

リアルタイム位置

3D地球を読み込み中...

次回通過

高度履歴

Altitude vs Time

uPlot chart will show altitude changes over time

軌道要素

1 18938U 88016B 26063.45344566 -.00000024 00000-0 -54666-4 0 9995
2 18938 74.0057 190.7441 0023474 123.3489 309.9544 12.46847908728729
Epoch: Mar 4, 2026 • Age: 23 hours

現在のステータス

高度 1469.8 km
速度 7.14 km/s
衛星直下点 62.10°N, 164.95°W
打ち上げ日 Mar 11, 1988
運用期間 37.9 years
タイプ other

技術仕様

分類 Payload
質量 60.00 kg
乾燥質量 60.00 kg
総質量 60.00 kg
長さ 0.80 m
直径 0.80 m
スパン 0.80 m
形状 Poly
製造者 NPOPM
バスタイプ Strela-1 11F625
フェーズステータス In Orbit
所有者/国 UNKS/SU

大規模コンステレーション

Loading constellations...